📊 Raw Sensor Data

Showing records 35976 to 36000 of 84,887 total

ID Distance (ft) Battery V Battery A Int Temp (°F) Int Humid (%) Ext Temp (°F) Solar V RSSI SNR Time Stamp
48924 15.2 3.84 -5 73 54 71 0.80 -69 8 08/11/2025 08:15 PM
48923 15.2 3.84 -29 77 54 73 2.00 -70 8 08/11/2025 08:00 PM
48922 15.2 3.94 0 81 54 76 4.50 -70 8 08/11/2025 07:45 PM
48921 15.3 3.97 10 88 52 82 4.50 -71 7 08/11/2025 07:15 PM
48920 15.4 3.93 -7 90 52 84 4.50 -69 7 08/11/2025 07:00 PM
48919 15.4 3.98 17 92 51 86 4.60 -70 8 08/11/2025 06:45 PM
48918 15.4 3.92 0 93 52 86 5.10 -70 8 08/11/2025 06:30 PM
48917 15.4 3.92 5 95 51 87 5.10 -69 7 08/11/2025 06:15 PM
48916 15.4 3.92 0 97 51 88 5.10 -69 8 08/11/2025 06:00 PM
48915 15.4 4.02 5 99 50 89 5.10 -71 7 08/11/2025 05:45 PM
48914 15.4 3.92 5 100 49 91 5.10 -72 7 08/11/2025 05:30 PM
48913 15.4 3.99 5 102 49 91 5.10 -70 8 08/11/2025 05:15 PM
48912 15.5 3.92 5 104 47 94 5.10 -70 8 08/11/2025 05:00 PM
48911 15.5 3.92 0 104 47 93 5.10 -69 7 08/11/2025 04:45 PM
48910 15.5 3.92 0 105 46 95 5.10 -70 8 08/11/2025 04:30 PM
48909 15.5 3.92 0 106 45 95 5.10 -70 8 08/11/2025 04:15 PM
48908 15.5 3.92 5 106 45 95 5.10 -71 7 08/11/2025 04:00 PM
48907 15.5 3.92 5 106 44 97 5.10 -69 8 08/11/2025 03:45 PM
48906 15.5 3.92 5 106 43 96 5.20 -71 8 08/11/2025 03:30 PM
48905 15.5 3.92 5 105 43 95 5.10 -69 8 08/11/2025 03:15 PM
48904 15.5 4.05 5 103 43 95 5.10 -70 8 08/11/2025 03:00 PM
48903 15.5 3.91 5 103 42 90 5.10 -70 8 08/11/2025 02:45 PM
48902 15.5 3.91 0 102 42 92 5.10 -70 8 08/11/2025 02:30 PM
48901 15.6 3.91 5 101 41 91 5.20 -70 8 08/11/2025 02:15 PM
48900 15.5 3.91 0 99 41 89 5.10 -70 7 08/11/2025 02:00 PM